TimeCST,TemperatureF,Dew PointF,Humidity,Sea Level PressureIn,VisibilityMPH,Wind Direction,Wind SpeedMPH,Gust SpeedMPH,PrecipitationIn,Events,Conditions,WindDirDegrees,DateUTC
12:15 AM,32.0,26.6,80,30.19,10.0,NE,5.8,-,0.00,,Mostly Cloudy,50,2013-02-21 06:15:00
12:35 AM,32.0,26.6,80,30.19,10.0,NE,6.9,-,0.00,,Mostly Cloudy,50,2013-02-21 06:35:00
12:55 AM,32.0,26.6,80,30.19,10.0,ENE,3.5,-,0.00,,Overcast,60,2013-02-21 06:55:00
1:15 AM,32.0,24.8,75,30.18,10.0,ENE,6.9,-,0.00,,Overcast,60,2013-02-21 07:15:00
1:35 AM,32.0,24.8,75,30.18,10.0,ENE,8.1,-,0.00,,Overcast,60,2013-02-21 07:35:00
1:55 AM,32.0,24.8,75,30.17,10.0,NE,8.1,-,0.00,,Mostly Cloudy,50,2013-02-21 07:55:00
2:15 AM,32.0,24.8,75,30.18,10.0,ENE,6.9,-,0.00,,Overcast,60,2013-02-21 08:15:00
2:35 AM,32.0,24.8,75,30.18,10.0,ENE,5.8,-,0.00,,Overcast,70,2013-02-21 08:35:00
2:55 AM,32.0,26.6,80,30.17,7.0,NE,5.8,-,0.00,,Overcast,50,2013-02-21 08:55:00
3:15 AM,32.0,28.4,87,30.18,7.0,NE,4.6,-,0.00,,Overcast,40,2013-02-21 09:15:00
3:35 AM,32.0,28.4,87,30.17,7.0,NE,6.9,-,0.01,,Mostly Cloudy,40,2013-02-21 09:35:00
3:55 AM,32.0,28.4,87,30.15,10.0,NE,11.5,-,0.01,,Mostly Cloudy,50,2013-02-21 09:55:00
4:15 AM,32.0,28.4,87,30.13,9.0,NE,10.4,-,0.00,,Overcast,50,2013-02-21 10:15:00
4:35 AM,32.0,26.6,80,30.12,10.0,NE,15.0,19.6,0.00,,Overcast,50,2013-02-21 10:35:00
4:55 AM,32.0,26.6,80,30.12,9.0,NE,9.2,-,0.00,,Overcast,50,2013-02-21 10:55:00
5:15 AM,32.0,26.6,80,30.12,8.0,ENE,9.2,-,0.00,,Overcast,70,2013-02-21 11:15:00
5:35 AM,32.0,26.6,80,30.12,7.0,ENE,8.1,-,0.00,,Overcast,70,2013-02-21 11:35:00
5:55 AM,32.0,26.6,80,30.12,10.0,ENE,8.1,-,N/A,,Overcast,70,2013-02-21 11:55:00
6:50 AM,32.0,26.6,80,30.10,9.0,East,11.5,-,N/A,,Mostly Cloudy,90,2013-02-21 12:50:00
7:50 AM,33.8,26.6,75,30.07,10.0,East,9.2,-,N/A,,Mostly Cloudy,90,2013-02-21 13:50:00
8:50 AM,35.6,26.6,70,30.07,10.0,ESE,10.4,-,N/A,,Overcast,110,2013-02-21 14:50:00
9:50 AM,37.4,26.6,65,29.99,10.0,East,11.5,20.7,N/A,,Mostly Cloudy,90,2013-02-21 15:50:00
10:50 AM,39.2,24.8,56,29.94,10.0,ESE,11.5,-,N/A,,Overcast,120,2013-02-21 16:50:00
11:45 AM,42.8,26.6,53,29.89,10.0,East,11.5,18.4,N/A,Rain-Thunderstorm,Light Thunderstorms and Rain,80,2013-02-21 17:45:00
12:45 PM,37.4,35.6,93,29.88,4.0,Calm,Calm,-,N/A,Rain-Thunderstorm,Light Thunderstorms and Rain,0,2013-02-21 18:45:00
1:55 PM,35.6,35.6,100,29.85,4.0,ENE,5.8,-,N/A,Rain,Light Rain,60,2013-02-21 19:55:00
2:55 PM,37.4,37.4,100,29.81,3.0,East,10.4,-,N/A,Rain,Light Rain,100,2013-02-21 20:55:00
3:45 PM,37.4,37.4,100,29.79,7.0,ESE,10.4,-,N/A,Rain,Light Rain,110,2013-02-21 21:45:00
4:50 PM,41.0,41.0,100,29.80,9.0,ESE,9.2,-,N/A,Rain,Light Rain,120,2013-02-21 22:50:00
5:50 PM,42.8,42.8,100,29.78,8.0,ESE,10.4,-,N/A,,Overcast,120,2013-02-21 23:50:00
6:50 PM,42.8,42.8,100,29.77,10.0,SSE,8.1,-,N/A,,Overcast,150,2013-02-22 00:50:00
7:50 PM,44.6,44.6,100,29.76,10.0,SE,11.5,-,N/A,,Overcast,140,2013-02-22 01:50:00
8:15 PM,44.6,44.6,100,29.76,10.0,SSE,11.5,-,0.00,,Overcast,160,2013-02-22 02:15:00
8:35 PM,44.6,44.6,100,29.80,5.0,West,6.9,18.4,0.00,,Overcast,260,2013-02-22 02:35:00
8:55 PM,44.6,44.6,100,29.80,5.0,West,4.6,-,0.01,,Overcast,280,2013-02-22 02:55:00
9:15 PM,44.6,44.6,100,29.82,4.0,Calm,Calm,-,0.00,,Overcast,0,2013-02-22 03:15:00
9:35 PM,44.6,44.6,100,29.83,3.0,Calm,Calm,-,0.00,,Mostly Cloudy,0,2013-02-22 03:35:00
9:55 PM,44.6,44.6,100,29.84,4.0,South,3.5,-,0.00,,Partly Cloudy,190,2013-02-22 03:55:00
10:15 PM,44.6,44.6,100,29.84,4.0,SE,3.5,-,0.00,,Mostly Cloudy,130,2013-02-22 04:15:00
10:35 PM,44.6,44.6,100,29.86,5.0,West,5.8,-,0.00,,Overcast,260,2013-02-22 04:35:00
10:55 PM,44.6,44.6,100,29.86,5.0,WSW,5.8,-,0.00,,Overcast,240,2013-02-22 04:55:00
11:15 PM,44.6,44.6,100,29.87,5.0,West,6.9,-,0.00,,Overcast,260,2013-02-22 05:15:00
11:35 PM,44.6,44.6,100,29.87,8.0,WSW,8.1,-,0.00,,Overcast,250,2013-02-22 05:35:00
11:55 PM,42.8,42.8,100,29.88,8.0,West,9.2,-,0.00,,Overcast,260,2013-02-22 05:55:00